Zadar, Croatia

8:52 PM CEST on June 27, 2017 (GMT +0200)
Zemunik

Weather History for LDZD - June, 2017

Change the Weather History Date:

Monday, June 19, 2017

  Actual Average Record
Temperature  
Mean Temperature 71 °F -  
Max Temperature 87 °F - - ()
Min Temperature 55 °F - - ()
Cooling Degree Days 6    
Growing Degree Days 21 (Base 50)    
Moisture  
Dew Point 53 °F    
Average Humidity 50    
Maximum Humidity 83    
Minimum Humidity 22    
Precipitation  
Precipitation 0.00 in - - ()
Sea Level Pressure  
Sea Level Pressure 30.12 in    
Wind  
Wind Speed 6 mph ()    
Max Wind Speed 21 mph    
Max Gust Speed -    
Visibility 9.4 miles    
Events      
T = Trace of Precipitation, MM = Missing Value Source: Averaged Metar Reports

Daily Weather History Graph

Daily Weather History Graph

Search for Another Location

Airport or City:

Trip Planner

Search our weather history database for the weather conditions in past years. The results will help you decide how hot, cold, wet, or windy it might be!

Date:

Astronomy

Jun. 19, 2017 Rise Set
Actual Time 5:14 AM CEST 8:44 PM CEST
Civil Twilight 4:38 AM CEST 9:21 PM CEST
Nautical Twilight 3:50 AM CEST 10:09 PM CEST
Astronomical Twilight 2:48 AM CEST 11:10 PM CEST
Moon 2:06 AM CEST (6/19) 3:05 PM CEST (6/19)
Length of Visible Light 16h 42m
Length of Day
15h 29m
Waning Crescent, 29% of the Moon is Illuminated
Jun 19
Waning Crescent
Jun 24
New
Jul 1
First Quarter
Jul 9
Full
Jul 16
Last Quarter

Hourly Weather History & Observations

Time (CEST) Temp. Heat Index Dew Point Humidity Pressure Visibility Wind Dir Wind Speed Gust Speed Precip Events Conditions
12:00 AM 62.6 °F - 50.0 °F 63% 30.15 in 6.2 mi SE 3.5 mph - N/A   Partly Cloudy
12:30 AM 60.8 °F - 50.0 °F 68% 30.15 in 6.2 mi Calm Calm - N/A   Partly Cloudy
1:00 AM 59.0 °F - 50.0 °F 72% 30.15 in 6.2 mi Variable 2.3 mph - N/A   Partly Cloudy
1:30 AM 59.0 °F - 50.0 °F 72% 30.12 in 6.2 mi Calm Calm - N/A   Partly Cloudy
2:00 AM 59 °F - 51 °F 66% 30.15 in 19 mi South 2.2 mph - -   Scattered Clouds
2:00 AM 59.0 °F - 50.0 °F 72% 30.12 in 6.2 mi Variable 2.3 mph - N/A   Partly Cloudy
2:30 AM 59.0 °F - 50.0 °F 72% 30.12 in 6.2 mi Calm Calm - N/A   Partly Cloudy
3:00 AM 59.0 °F - 50.0 °F 72% 30.12 in 6.2 mi Variable 2.3 mph - N/A   Partly Cloudy
3:30 AM 57.2 °F - 50.0 °F 77% 30.12 in 6.2 mi Variable 1.2 mph - N/A   Partly Cloudy
4:00 AM 57.2 °F - 50.0 °F 77% 30.12 in - Variable 1.2 mph - N/A   Clear
4:30 AM 57.2 °F - 50.0 °F 77% 30.12 in - SE 5.8 mph - N/A   Clear
5:00 AM 62 °F - 50 °F 56% 30.14 in 19 mi ESE 6.7 mph - -   Scattered Clouds
5:00 AM 62.6 °F - 50.0 °F 63% 30.12 in - ESE 5.8 mph - N/A   Clear
5:30 AM 57.2 °F - 50.0 °F 77% 30.12 in - SSE 5.8 mph - N/A   Clear
6:00 AM 59.0 °F - 50.0 °F 72% 30.12 in - SSE 4.6 mph - N/A   Clear
6:30 AM 64.4 °F - 53.6 °F 68% 30.15 in - ENE 3.5 mph - N/A   Clear
7:00 AM 69.8 °F - 53.6 °F 56% 30.15 in - SE 3.5 mph - N/A   Clear
7:30 AM 75.2 °F - 53.6 °F 47% 30.15 in - North 3.5 mph - N/A   Clear
8:00 AM 76 °F - 54 °F 36% 30.15 in 19 mi NE 4.5 mph - -  
8:00 AM 77.0 °F - 53.6 °F 44% 30.15 in - NE 5.8 mph - N/A   Clear
8:30 AM 78.8 °F - 53.6 °F 42% 30.15 in - NNE 5.8 mph - N/A   Clear
9:30 AM 78.8 °F - 50.0 °F 36% 30.15 in - WNW 4.6 mph - N/A   Clear
10:00 AM 80.6 °F - 51.8 °F 37% 30.15 in - Variable 5.8 mph - N/A   Clear
10:30 AM 80.6 °F - 50.0 °F 34% 30.15 in - Variable 8.1 mph - N/A   Clear
11:00 AM 82 °F - 51 °F 23% 30.14 in 19 mi East 4.5 mph - -   Scattered Clouds
11:00 AM 82.4 °F - 51.8 °F 35% 30.15 in 6.2 mi Variable 5.8 mph - N/A   Partly Cloudy
11:30 AM 82.4 °F 81.4 °F 53.6 °F 37% 30.15 in 6.2 mi West 11.5 mph - N/A   Partly Cloudy
12:00 PM 84.2 °F - 51.8 °F 33% 30.12 in 6.2 mi Variable 6.9 mph - N/A   Partly Cloudy
12:30 PM 84.2 °F - 50.0 °F 30% 30.12 in 6.2 mi West 16.1 mph - N/A   Partly Cloudy
1:00 PM 84.2 °F 82.8 °F 53.6 °F 35% 30.12 in 6.2 mi WNW 17.3 mph - N/A   Partly Cloudy
1:30 PM 84.2 °F - 51.8 °F 33% 30.09 in 6.2 mi West 16.1 mph - N/A   Partly Cloudy
2:00 PM 86 °F - 53 °F 22% 30.10 in 19 mi WNW 17.9 mph - -   Scattered Clouds
2:00 PM 86.0 °F - 51.8 °F 31% 30.09 in 6.2 mi WNW 18.4 mph - N/A   Partly Cloudy
2:30 PM 86.0 °F - 51.8 °F 31% 30.09 in 6.2 mi NW 17.3 mph - N/A   Partly Cloudy
3:00 PM 86.0 °F - 51.8 °F 31% 30.09 in 6.2 mi NW 17.3 mph - N/A   Partly Cloudy
3:30 PM 86.0 °F - 50.0 °F 29% 30.09 in 6.2 mi WNW 19.6 mph - N/A   Partly Cloudy
4:00 PM 84.2 °F - 51.8 °F 33% 30.09 in 6.2 mi WNW 20.7 mph - N/A   Partly Cloudy
4:30 PM 84.2 °F - 50.0 °F 30% 30.09 in 6.2 mi NW 18.4 mph - N/A   Partly Cloudy
5:00 PM 84 °F - 51 °F 22% 30.09 in 19 mi WNW 20.1 mph - -   Scattered Clouds
5:00 PM 84.2 °F - 51.8 °F 33% 30.09 in 6.2 mi WNW 20.7 mph - N/A   Partly Cloudy
5:30 PM 84.2 °F - 50.0 °F 30% 30.09 in 6.2 mi NW 18.4 mph - N/A   Partly Cloudy
6:00 PM 82.4 °F - 51.8 °F 35% 30.09 in 6.2 mi NW 17.3 mph - N/A   Partly Cloudy
6:30 PM 82.4 °F 81.4 °F 53.6 °F 37% 30.09 in 6.2 mi NW 16.1 mph - N/A   Partly Cloudy
7:00 PM 80.6 °F 80.3 °F 53.6 °F 39% 30.09 in - NW 12.7 mph - N/A   Clear
7:30 PM 78.8 °F - 53.6 °F 42% 30.09 in - NW 13.8 mph - N/A   Clear
8:00 PM 78 °F - 55 °F 34% 30.10 in 19 mi NW 8.9 mph - -  
8:00 PM 77.0 °F - 55.4 °F 47% 30.09 in - NW 9.2 mph - N/A   Clear
8:30 PM 75.2 °F - 57.2 °F 53% 30.09 in - NW 6.9 mph - N/A   Clear
9:00 PM 71.6 °F - 57.2 °F 60% 30.09 in - WNW 5.8 mph - N/A   Clear
9:30 PM 69.8 °F - 59.0 °F 68% 30.09 in - WNW 4.6 mph - N/A   Clear
10:00 PM 69.8 °F - 59.0 °F 68% 30.09 in - NNW 5.8 mph - N/A   Clear
10:30 PM 68.0 °F - 59.0 °F 73% 30.09 in - West 3.5 mph - N/A   Clear
11:00 PM 66 °F - 58 °F 70% 30.12 in 19 mi South 2.2 mph - -  
11:00 PM 66.2 °F - 59.0 °F 78% 30.09 in - Variable 2.3 mph - N/A   Clear
11:30 PM 64.4 °F - 59.0 °F 83% 30.09 in - SSE 1.2 mph - N/A   Clear